"date_time","site_id","latitude","longitude","notes","water_temperature","water_temperature_units","water_hub_qa_qc"
"2021-08-26 18:00:00","ELK002","50.5152762","-114.998874","","13.173","degrees Celsius"
"2021-08-26 19:00:00","ELK002","50.5152762","-114.998874","","13.173","degrees Celsius"
"2021-08-26 20:00:00","ELK002","50.5152762","-114.998874","","13.076","degrees Celsius"
"2021-08-26 21:00:00","ELK002","50.5152762","-114.998874","","12.787","degrees Celsius"
"2021-08-26 22:00:00","ELK002","50.5152762","-114.998874","","12.304","degrees Celsius"
"2021-08-26 23:00:00","ELK002","50.5152762","-114.998874","","11.819","degrees Celsius"
"2021-08-27 00:00:00","ELK002","50.5152762","-114.998874","","11.334","degrees Celsius"
"2021-08-27 01:00:00","ELK002","50.5152762","-114.998874","","10.846","degrees Celsius"
"2021-08-27 02:00:00","ELK002","50.5152762","-114.998874","","10.357","degrees Celsius"
"2021-08-27 03:00:00","ELK002","50.5152762","-114.998874","","9.965","degrees Celsius"
"2021-08-27 04:00:00","ELK002","50.5152762","-114.998874","","9.571","degrees Celsius"
"2021-08-27 05:00:00","ELK002","50.5152762","-114.998874","","9.176","degrees Celsius"
"2021-08-27 06:00:00","ELK002","50.5152762","-114.998874","","8.978","degrees Celsius"
"2021-08-27 07:00:00","ELK002","50.5152762","-114.998874","","8.68","degrees Celsius"
"2021-08-27 08:00:00","ELK002","50.5152762","-114.998874","","8.481","degrees Celsius"
"2021-08-27 09:00:00","ELK002","50.5152762","-114.998874","","8.68","degrees Celsius"
"2021-08-27 10:00:00","ELK002","50.5152762","-114.998874","","9.176","degrees Celsius"
"2021-08-27 11:00:00","ELK002","50.5152762","-114.998874","","9.571","degrees Celsius"
"2021-08-27 12:00:00","ELK002","50.5152762","-114.998874","","9.866","degrees Celsius"
"2021-08-27 13:00:00","ELK002","50.5152762","-114.998874","","10.259","degrees Celsius"
"2021-08-27 14:00:00","ELK002","50.5152762","-114.998874","","10.748","degrees Celsius"
"2021-08-27 15:00:00","ELK002","50.5152762","-114.998874","","11.334","degrees Celsius"
"2021-08-27 16:00:00","ELK002","50.5152762","-114.998874","","11.625","degrees Celsius"
"2021-08-27 17:00:00","ELK002","50.5152762","-114.998874","","11.819","degrees Celsius"
"2021-08-27 18:00:00","ELK002","50.5152762","-114.998874","","11.819","degrees Celsius"
"2021-08-27 19:00:00","ELK002","50.5152762","-114.998874","","11.722","degrees Celsius"
"2021-08-27 20:00:00","ELK002","50.5152762","-114.998874","","11.625","degrees Celsius"
"2021-08-27 21:00:00","ELK002","50.5152762","-114.998874","","11.334","degrees Celsius"
"2021-08-27 22:00:00","ELK002","50.5152762","-114.998874","","11.041","degrees Celsius"
"2021-08-27 23:00:00","ELK002","50.5152762","-114.998874","","10.846","degrees Celsius"
"2021-08-28 00:00:00","ELK002","50.5152762","-114.998874","","10.455","degrees Celsius"
"2021-08-28 01:00:00","ELK002","50.5152762","-114.998874","","10.259","degrees Celsius"
"2021-08-28 02:00:00","ELK002","50.5152762","-114.998874","","9.965","degrees Celsius"
"2021-08-28 03:00:00","ELK002","50.5152762","-114.998874","","9.669","degrees Celsius"
"2021-08-28 04:00:00","ELK002","50.5152762","-114.998874","","9.373","degrees Celsius"
"2021-08-28 05:00:00","ELK002","50.5152762","-114.998874","","9.176","degrees Celsius"
"2021-08-28 06:00:00","ELK002","50.5152762","-114.998874","","9.077","degrees Celsius"
"2021-08-28 07:00:00","ELK002","50.5152762","-114.998874","","8.978","degrees Celsius"
"2021-08-28 08:00:00","ELK002","50.5152762","-114.998874","","8.978","degrees Celsius"
"2021-08-28 09:00:00","ELK002","50.5152762","-114.998874","","9.077","degrees Celsius"
"2021-08-28 10:00:00","ELK002","50.5152762","-114.998874","","9.768","degrees Celsius"
"2021-08-28 11:00:00","ELK002","50.5152762","-114.998874","","10.651","degrees Celsius"
"2021-08-28 12:00:00","ELK002","50.5152762","-114.998874","","11.625","degrees Celsius"
"2021-08-28 13:00:00","ELK002","50.5152762","-114.998874","","12.497","degrees Celsius"
"2021-08-28 14:00:00","ELK002","50.5152762","-114.998874","","13.558","degrees Celsius"
"2021-08-28 15:00:00","ELK002","50.5152762","-114.998874","","14.23","degrees Celsius"
"2021-08-28 16:00:00","ELK002","50.5152762","-114.998874","","14.517","degrees Celsius"
"2021-08-28 17:00:00","ELK002","50.5152762","-114.998874","","14.613","degrees Celsius"
"2021-08-28 18:00:00","ELK002","50.5152762","-114.998874","","14.517","degrees Celsius"
"2021-08-28 19:00:00","ELK002","50.5152762","-114.998874","","14.134","degrees Celsius"
"2021-08-28 20:00:00","ELK002","50.5152762","-114.998874","","13.654","degrees Celsius"
"2021-08-28 21:00:00","ELK002","50.5152762","-114.998874","","13.173","degrees Celsius"
"2021-08-28 22:00:00","ELK002","50.5152762","-114.998874","","12.69","degrees Celsius"
"2021-08-28 23:00:00","ELK002","50.5152762","-114.998874","","12.207","degrees Celsius"
"2021-08-29 00:00:00","ELK002","50.5152762","-114.998874","","11.625","degrees Celsius"
"2021-08-29 01:00:00","ELK002","50.5152762","-114.998874","","11.041","degrees Celsius"
"2021-08-29 02:00:00","ELK002","50.5152762","-114.998874","","10.455","degrees Celsius"
"2021-08-29 03:00:00","ELK002","50.5152762","-114.998874","","9.866","degrees Celsius"
"2021-08-29 04:00:00","ELK002","50.5152762","-114.998874","","9.373","degrees Celsius"
"2021-08-29 05:00:00","ELK002","50.5152762","-114.998874","","8.978","degrees Celsius"
"2021-08-29 06:00:00","ELK002","50.5152762","-114.998874","","8.581","degrees Celsius"
"2021-08-29 07:00:00","ELK002","50.5152762","-114.998874","","8.282","degrees Celsius"
"2021-08-29 08:00:00","ELK002","50.5152762","-114.998874","","8.082","degrees Celsius"
"2021-08-29 09:00:00","ELK002","50.5152762","-114.998874","","8.182","degrees Celsius"
"2021-08-29 10:00:00","ELK002","50.5152762","-114.998874","","8.978","degrees Celsius"
"2021-08-29 11:00:00","ELK002","50.5152762","-114.998874","","9.866","degrees Celsius"
"2021-08-29 12:00:00","ELK002","50.5152762","-114.998874","","11.041","degrees Celsius"
"2021-08-29 13:00:00","ELK002","50.5152762","-114.998874","","12.207","degrees Celsius"
"2021-08-29 14:00:00","ELK002","50.5152762","-114.998874","","13.365","degrees Celsius"
"2021-08-29 15:00:00","ELK002","50.5152762","-114.998874","","13.942","degrees Celsius"
"2021-08-29 16:00:00","ELK002","50.5152762","-114.998874","","14.421","degrees Celsius"
"2021-08-29 17:00:00","ELK002","50.5152762","-114.998874","","14.613","degrees Celsius"
"2021-08-29 18:00:00","ELK002","50.5152762","-114.998874","","14.517","degrees Celsius"
"2021-08-29 19:00:00","ELK002","50.5152762","-114.998874","","14.134","degrees Celsius"
"2021-08-29 20:00:00","ELK002","50.5152762","-114.998874","","13.846","degrees Celsius"
"2021-08-29 21:00:00","ELK002","50.5152762","-114.998874","","13.558","degrees Celsius"
"2021-08-29 22:00:00","ELK002","50.5152762","-114.998874","","12.98","degrees Celsius"
"2021-08-29 23:00:00","ELK002","50.5152762","-114.998874","","12.401","degrees Celsius"
"2021-08-30 00:00:00","ELK002","50.5152762","-114.998874","","11.819","degrees Celsius"
"2021-08-30 01:00:00","ELK002","50.5152762","-114.998874","","11.236","degrees Celsius"
"2021-08-30 02:00:00","ELK002","50.5152762","-114.998874","","10.748","degrees Celsius"
"2021-08-30 03:00:00","ELK002","50.5152762","-114.998874","","10.161","degrees Celsius"
"2021-08-30 04:00:00","ELK002","50.5152762","-114.998874","","9.768","degrees Celsius"
"2021-08-30 05:00:00","ELK002","50.5152762","-114.998874","","9.472","degrees Celsius"
"2021-08-30 06:00:00","ELK002","50.5152762","-114.998874","","9.176","degrees Celsius"
"2021-08-30 07:00:00","ELK002","50.5152762","-114.998874","","8.978","degrees Celsius"
"2021-08-30 08:00:00","ELK002","50.5152762","-114.998874","","8.879","degrees Celsius"
"2021-08-30 09:00:00","ELK002","50.5152762","-114.998874","","8.978","degrees Celsius"
"2021-08-30 10:00:00","ELK002","50.5152762","-114.998874","","9.571","degrees Celsius"
"2021-08-30 11:00:00","ELK002","50.5152762","-114.998874","","10.455","degrees Celsius"
"2021-08-30 12:00:00","ELK002","50.5152762","-114.998874","","11.528","degrees Celsius"
"2021-08-30 13:00:00","ELK002","50.5152762","-114.998874","","12.497","degrees Celsius"
"2021-08-30 14:00:00","ELK002","50.5152762","-114.998874","","13.076","degrees Celsius"
"2021-08-30 15:00:00","ELK002","50.5152762","-114.998874","","13.654","degrees Celsius"
"2021-08-30 16:00:00","ELK002","50.5152762","-114.998874","","14.134","degrees Celsius"
"2021-08-30 17:00:00","ELK002","50.5152762","-114.998874","","14.421","degrees Celsius"
"2021-08-30 18:00:00","ELK002","50.5152762","-114.998874","","14.421","degrees Celsius"
"2021-08-30 19:00:00","ELK002","50.5152762","-114.998874","","14.23","degrees Celsius"
"2021-08-30 20:00:00","ELK002","50.5152762","-114.998874","","13.846","degrees Celsius"
"2021-08-30 21:00:00","ELK002","50.5152762","-114.998874","","13.558","degrees Celsius"
"2021-08-30 22:00:00","ELK002","50.5152762","-114.998874","","13.076","degrees Celsius"
"2021-08-30 23:00:00","ELK002","50.5152762","-114.998874","","12.594","degrees Celsius"
"2021-08-31 00:00:00","ELK002","50.5152762","-114.998874","","12.11","degrees Celsius"
"2021-08-31 01:00:00","ELK002","50.5152762","-114.998874","","11.528","degrees Celsius"
"2021-08-31 02:00:00","ELK002","50.5152762","-114.998874","","10.944","degrees Celsius"
"2021-08-31 03:00:00","ELK002","50.5152762","-114.998874","","10.455","degrees Celsius"
"2021-08-31 04:00:00","ELK002","50.5152762","-114.998874","","10.161","degrees Celsius"
"2021-08-31 05:00:00","ELK002","50.5152762","-114.998874","","9.768","degrees Celsius"
"2021-08-31 06:00:00","ELK002","50.5152762","-114.998874","","9.472","degrees Celsius"
"2021-08-31 07:00:00","ELK002","50.5152762","-114.998874","","9.176","degrees Celsius"
"2021-08-31 08:00:00","ELK002","50.5152762","-114.998874","","9.077","degrees Celsius"
"2021-08-31 09:00:00","ELK002","50.5152762","-114.998874","","9.275","degrees Celsius"
"2021-08-31 10:00:00","ELK002","50.5152762","-114.998874","","9.866","degrees Celsius"
"2021-08-31 11:00:00","ELK002","50.5152762","-114.998874","","10.553","degrees Celsius"
"2021-08-31 12:00:00","ELK002","50.5152762","-114.998874","","11.041","degrees Celsius"
"2021-08-31 13:00:00","ELK002","50.5152762","-114.998874","","11.139","degrees Celsius"
"2021-08-31 14:00:00","ELK002","50.5152762","-114.998874","","11.431","degrees Celsius"
"2021-08-31 15:00:00","ELK002","50.5152762","-114.998874","","11.625","degrees Celsius"
"2021-08-31 16:00:00","ELK002","50.5152762","-114.998874","","11.625","degrees Celsius"
"2021-08-31 17:00:00","ELK002","50.5152762","-114.998874","","11.625","degrees Celsius"
"2021-08-31 18:00:00","ELK002","50.5152762","-114.998874","","11.916","degrees Celsius"
"2021-08-31 19:00:00","ELK002","50.5152762","-114.998874","","11.916","degrees Celsius"
"2021-08-31 20:00:00","ELK002","50.5152762","-114.998874","","11.819","degrees Celsius"
"2021-08-31 21:00:00","ELK002","50.5152762","-114.998874","","11.528","degrees Celsius"
"2021-08-31 22:00:00","ELK002","50.5152762","-114.998874","","11.139","degrees Celsius"
"2021-08-31 23:00:00","ELK002","50.5152762","-114.998874","","10.748","degrees Celsius"
"2021-09-01 00:00:00","ELK002","50.5152762","-114.998874","","10.455","degrees Celsius"
"2021-09-01 01:00:00","ELK002","50.5152762","-114.998874","","10.161","degrees Celsius"
"2021-09-01 02:00:00","ELK002","50.5152762","-114.998874","","9.866","degrees Celsius"
"2021-09-01 03:00:00","ELK002","50.5152762","-114.998874","","9.472","degrees Celsius"
"2021-09-01 04:00:00","ELK002","50.5152762","-114.998874","","9.176","degrees Celsius"
"2021-09-01 05:00:00","ELK002","50.5152762","-114.998874","","8.978","degrees Celsius"
"2021-09-01 06:00:00","ELK002","50.5152762","-114.998874","","8.68","degrees Celsius"
"2021-09-01 07:00:00","ELK002","50.5152762","-114.998874","","8.581","degrees Celsius"
"2021-09-01 08:00:00","ELK002","50.5152762","-114.998874","","8.581","degrees Celsius"
"2021-09-01 09:00:00","ELK002","50.5152762","-114.998874","","8.68","degrees Celsius"
"2021-09-01 10:00:00","ELK002","50.5152762","-114.998874","","9.077","degrees Celsius"
"2021-09-01 11:00:00","ELK002","50.5152762","-114.998874","","9.669","degrees Celsius"
"2021-09-01 12:00:00","ELK002","50.5152762","-114.998874","","10.259","degrees Celsius"
"2021-09-01 13:00:00","ELK002","50.5152762","-114.998874","","10.748","degrees Celsius"
"2021-09-01 14:00:00","ELK002","50.5152762","-114.998874","","11.334","degrees Celsius"
"2021-09-01 15:00:00","ELK002","50.5152762","-114.998874","","12.013","degrees Celsius"
"2021-09-01 16:00:00","ELK002","50.5152762","-114.998874","","11.916","degrees Celsius"
"2021-09-01 17:00:00","ELK002","50.5152762","-114.998874","","12.013","degrees Celsius"
"2021-09-01 18:00:00","ELK002","50.5152762","-114.998874","","11.916","degrees Celsius"
"2021-09-01 19:00:00","ELK002","50.5152762","-114.998874","","11.528","degrees Celsius"
"2021-09-01 20:00:00","ELK002","50.5152762","-114.998874","","11.236","degrees Celsius"
"2021-09-01 21:00:00","ELK002","50.5152762","-114.998874","","10.944","degrees Celsius"
"2021-09-01 22:00:00","ELK002","50.5152762","-114.998874","","10.748","degrees Celsius"
"2021-09-01 23:00:00","ELK002","50.5152762","-114.998874","","10.553","degrees Celsius"
"2021-09-02 00:00:00","ELK002","50.5152762","-114.998874","","10.259","degrees Celsius"
"2021-09-02 01:00:00","ELK002","50.5152762","-114.998874","","9.866","degrees Celsius"
"2021-09-02 02:00:00","ELK002","50.5152762","-114.998874","","9.669","degrees Celsius"
"2021-09-02 03:00:00","ELK002","50.5152762","-114.998874","","9.373","degrees Celsius"
"2021-09-02 04:00:00","ELK002","50.5152762","-114.998874","","9.077","degrees Celsius"
"2021-09-02 05:00:00","ELK002","50.5152762","-114.998874","","8.879","degrees Celsius"
"2021-09-02 06:00:00","ELK002","50.5152762","-114.998874","","8.581","degrees Celsius"
"2021-09-02 07:00:00","ELK002","50.5152762","-114.998874","","8.282","degrees Celsius"
"2021-09-02 08:00:00","ELK002","50.5152762","-114.998874","","7.983","degrees Celsius"
"2021-09-02 09:00:00","ELK002","50.5152762","-114.998874","","7.983","degrees Celsius"
"2021-09-02 10:00:00","ELK002","50.5152762","-114.998874","","8.282","degrees Celsius"
"2021-09-02 11:00:00","ELK002","50.5152762","-114.998874","","9.077","degrees Celsius"
"2021-09-02 12:00:00","ELK002","50.5152762","-114.998874","","9.571","degrees Celsius"
"2021-09-02 13:00:00","ELK002","50.5152762","-114.998874","","10.259","degrees Celsius"
"2021-09-02 14:00:00","ELK002","50.5152762","-114.998874","","10.553","degrees Celsius"
"2021-09-02 15:00:00","ELK002","50.5152762","-114.998874","","11.041","degrees Celsius"
"2021-09-02 16:00:00","ELK002","50.5152762","-114.998874","","11.431","degrees Celsius"
"2021-09-02 17:00:00","ELK002","50.5152762","-114.998874","","11.625","degrees Celsius"
"2021-09-02 18:00:00","ELK002","50.5152762","-114.998874","","11.722","degrees Celsius"
"2021-09-02 19:00:00","ELK002","50.5152762","-114.998874","","11.625","degrees Celsius"
"2021-09-02 20:00:00","ELK002","50.5152762","-114.998874","","11.334","degrees Celsius"
"2021-09-02 21:00:00","ELK002","50.5152762","-114.998874","","11.041","degrees Celsius"
"2021-09-02 22:00:00","ELK002","50.5152762","-114.998874","","10.553","degrees Celsius"
"2021-09-02 23:00:00","ELK002","50.5152762","-114.998874","","10.161","degrees Celsius"
"2021-09-03 00:00:00","ELK002","50.5152762","-114.998874","","9.669","degrees Celsius"
"2021-09-03 01:00:00","ELK002","50.5152762","-114.998874","","9.275","degrees Celsius"
"2021-09-03 02:00:00","ELK002","50.5152762","-114.998874","","8.879","degrees Celsius"
"2021-09-03 03:00:00","ELK002","50.5152762","-114.998874","","8.382","degrees Celsius"
"2021-09-03 04:00:00","ELK002","50.5152762","-114.998874","","7.983","degrees Celsius"
"2021-09-03 05:00:00","ELK002","50.5152762","-114.998874","","7.582","degrees Celsius"
"2021-09-03 06:00:00","ELK002","50.5152762","-114.998874","","7.179","degrees Celsius"
"2021-09-03 07:00:00","ELK002","50.5152762","-114.998874","","6.877","degrees Celsius"
"2021-09-03 08:00:00","ELK002","50.5152762","-114.998874","","6.573","degrees Celsius"
"2021-09-03 09:00:00","ELK002","50.5152762","-114.998874","","6.674","degrees Celsius"
"2021-09-03 10:00:00","ELK002","50.5152762","-114.998874","","7.28","degrees Celsius"
"2021-09-03 11:00:00","ELK002","50.5152762","-114.998874","","8.182","degrees Celsius"
"2021-09-03 12:00:00","ELK002","50.5152762","-114.998874","","9.176","degrees Celsius"
"2021-09-03 13:00:00","ELK002","50.5152762","-114.998874","","10.357","degrees Celsius"
"2021-09-03 14:00:00","ELK002","50.5152762","-114.998874","","11.431","degrees Celsius"
"2021-09-03 15:00:00","ELK002","50.5152762","-114.998874","","12.401","degrees Celsius"
"2021-09-03 16:00:00","ELK002","50.5152762","-114.998874","","13.076","degrees Celsius"
"2021-09-03 17:00:00","ELK002","50.5152762","-114.998874","","13.461","degrees Celsius"
"2021-09-03 18:00:00","ELK002","50.5152762","-114.998874","","13.558","degrees Celsius"
"2021-09-03 19:00:00","ELK002","50.5152762","-114.998874","","13.269","degrees Celsius"
"2021-09-03 20:00:00","ELK002","50.5152762","-114.998874","","12.883","degrees Celsius"
"2021-09-03 21:00:00","ELK002","50.5152762","-114.998874","","12.304","degrees Celsius"
"2021-09-03 22:00:00","ELK002","50.5152762","-114.998874","","11.916","degrees Celsius"
"2021-09-03 23:00:00","ELK002","50.5152762","-114.998874","","11.431","degrees Celsius"
"2021-09-04 00:00:00","ELK002","50.5152762","-114.998874","","10.944","degrees Celsius"
"2021-09-04 01:00:00","ELK002","50.5152762","-114.998874","","10.357","degrees Celsius"
"2021-09-04 02:00:00","ELK002","50.5152762","-114.998874","","9.768","degrees Celsius"
"2021-09-04 03:00:00","ELK002","50.5152762","-114.998874","","9.275","degrees Celsius"
"2021-09-04 04:00:00","ELK002","50.5152762","-114.998874","","8.779","degrees Celsius"
"2021-09-04 05:00:00","ELK002","50.5152762","-114.998874","","8.282","degrees Celsius"
"2021-09-04 06:00:00","ELK002","50.5152762","-114.998874","","7.782","degrees Celsius"
"2021-09-04 07:00:00","ELK002","50.5152762","-114.998874","","7.381","degrees Celsius"
"2021-09-04 08:00:00","ELK002","50.5152762","-114.998874","","7.079","degrees Celsius"
"2021-09-04 09:00:00","ELK002","50.5152762","-114.998874","","7.179","degrees Celsius"
"2021-09-04 10:00:00","ELK002","50.5152762","-114.998874","","7.782","degrees Celsius"
"2021-09-04 11:00:00","ELK002","50.5152762","-114.998874","","8.779","degrees Celsius"
"2021-09-04 12:00:00","ELK002","50.5152762","-114.998874","","9.768","degrees Celsius"
"2021-09-04 13:00:00","ELK002","50.5152762","-114.998874","","10.944","degrees Celsius"
"2021-09-04 14:00:00","ELK002","50.5152762","-114.998874","","12.013","degrees Celsius"
"2021-09-04 15:00:00","ELK002","50.5152762","-114.998874","","12.883","degrees Celsius"
"2021-09-04 16:00:00","ELK002","50.5152762","-114.998874","","13.269","degrees Celsius"
"2021-09-04 17:00:00","ELK002","50.5152762","-114.998874","","13.461","degrees Celsius"
"2021-09-04 18:00:00","ELK002","50.5152762","-114.998874","","13.654","degrees Celsius"
"2021-09-04 19:00:00","ELK002","50.5152762","-114.998874","","13.558","degrees Celsius"
"2021-09-04 20:00:00","ELK002","50.5152762","-114.998874","","13.365","degrees Celsius"
"2021-09-04 21:00:00","ELK002","50.5152762","-114.998874","","12.98","degrees Celsius"
"2021-09-04 22:00:00","ELK002","50.5152762","-114.998874","","12.594","degrees Celsius"
"2021-09-04 23:00:00","ELK002","50.5152762","-114.998874","","12.304","degrees Celsius"
"2021-09-05 00:00:00","ELK002","50.5152762","-114.998874","","12.013","degrees Celsius"
"2021-09-05 01:00:00","ELK002","50.5152762","-114.998874","","11.722","degrees Celsius"
"2021-09-05 02:00:00","ELK002","50.5152762","-114.998874","","11.334","degrees Celsius"
"2021-09-05 03:00:00","ELK002","50.5152762","-114.998874","","11.041","degrees Celsius"
"2021-09-05 04:00:00","ELK002","50.5152762","-114.998874","","10.651","degrees Celsius"
"2021-09-05 05:00:00","ELK002","50.5152762","-114.998874","","10.259","degrees Celsius"
"2021-09-05 06:00:00","ELK002","50.5152762","-114.998874","","9.965","degrees Celsius"
"2021-09-05 07:00:00","ELK002","50.5152762","-114.998874","","9.669","degrees Celsius"
"2021-09-05 08:00:00","ELK002","50.5152762","-114.998874","","9.571","degrees Celsius"
"2021-09-05 09:00:00","ELK002","50.5152762","-114.998874","","9.669","degrees Celsius"
"2021-09-05 10:00:00","ELK002","50.5152762","-114.998874","","9.965","degrees Celsius"
"2021-09-05 11:00:00","ELK002","50.5152762","-114.998874","","10.651","degrees Celsius"
"2021-09-05 12:00:00","ELK002","50.5152762","-114.998874","","11.334","degrees Celsius"
"2021-09-05 13:00:00","ELK002","50.5152762","-114.998874","","12.013","degrees Celsius"
"2021-09-05 14:00:00","ELK002","50.5152762","-114.998874","","12.787","degrees Celsius"
"2021-09-05 15:00:00","ELK002","50.5152762","-114.998874","","13.461","degrees Celsius"
"2021-09-05 16:00:00","ELK002","50.5152762","-114.998874","","13.942","degrees Celsius"
"2021-09-05 17:00:00","ELK002","50.5152762","-114.998874","","14.134","degrees Celsius"
"2021-09-05 18:00:00","ELK002","50.5152762","-114.998874","","13.846","degrees Celsius"
"2021-09-05 19:00:00","ELK002","50.5152762","-114.998874","","13.365","degrees Celsius"
"2021-09-05 20:00:00","ELK002","50.5152762","-114.998874","","12.883","degrees Celsius"
"2021-09-05 21:00:00","ELK002","50.5152762","-114.998874","","12.401","degrees Celsius"
"2021-09-05 22:00:00","ELK002","50.5152762","-114.998874","","11.916","degrees Celsius"
"2021-09-05 23:00:00","ELK002","50.5152762","-114.998874","","11.528","degrees Celsius"
"2021-09-06 00:00:00","ELK002","50.5152762","-114.998874","","11.139","degrees Celsius"
"2021-09-06 01:00:00","ELK002","50.5152762","-114.998874","","10.651","degrees Celsius"
"2021-09-06 02:00:00","ELK002","50.5152762","-114.998874","","10.259","degrees Celsius"
"2021-09-06 03:00:00","ELK002","50.5152762","-114.998874","","9.965","degrees Celsius"
"2021-09-06 04:00:00","ELK002","50.5152762","-114.998874","","9.768","degrees Celsius"
"2021-09-06 05:00:00","ELK002","50.5152762","-114.998874","","9.472","degrees Celsius"
"2021-09-06 06:00:00","ELK002","50.5152762","-114.998874","","9.176","degrees Celsius"
"2021-09-06 07:00:00","ELK002","50.5152762","-114.998874","","8.879","degrees Celsius"
"2021-09-06 08:00:00","ELK002","50.5152762","-114.998874","","8.779","degrees Celsius"
"2021-09-06 09:00:00","ELK002","50.5152762","-114.998874","","8.978","degrees Celsius"
"2021-09-06 10:00:00","ELK002","50.5152762","-114.998874","","9.472","degrees Celsius"
"2021-09-06 11:00:00","ELK002","50.5152762","-114.998874","","10.161","degrees Celsius"
"2021-09-06 12:00:00","ELK002","50.5152762","-114.998874","","11.041","degrees Celsius"
"2021-09-06 13:00:00","ELK002","50.5152762","-114.998874","","12.013","degrees Celsius"
"2021-09-06 14:00:00","ELK002","50.5152762","-114.998874","","12.98","degrees Celsius"
"2021-09-06 15:00:00","ELK002","50.5152762","-114.998874","","13.75","degrees Celsius"
"2021-09-06 16:00:00","ELK002","50.5152762","-114.998874","","14.23","degrees Celsius"
"2021-09-06 17:00:00","ELK002","50.5152762","-114.998874","","14.325","degrees Celsius"
"2021-09-06 18:00:00","ELK002","50.5152762","-114.998874","","14.134","degrees Celsius"
"2021-09-06 19:00:00","ELK002","50.5152762","-114.998874","","13.75","degrees Celsius"
"2021-09-06 20:00:00","ELK002","50.5152762","-114.998874","","13.076","degrees Celsius"
"2021-09-06 21:00:00","ELK002","50.5152762","-114.998874","","12.401","degrees Celsius"
"2021-09-06 22:00:00","ELK002","50.5152762","-114.998874","","11.916","degrees Celsius"
"2021-09-06 23:00:00","ELK002","50.5152762","-114.998874","","11.431","degrees Celsius"
"2021-09-07 00:00:00","ELK002","50.5152762","-114.998874","","10.846","degrees Celsius"
"2021-09-07 01:00:00","ELK002","50.5152762","-114.998874","","10.357","degrees Celsius"